Decatur, AL

12:17 AM CDT on September 20, 2017 (GMT -0500)
Pryor Regional

Weather History for KDCU - March, 2013

Change the Weather History Date:

Thursday, March 21, 2013

  Actual Average Record
Temperature  
Mean Temperature 36 °F -  
Max Temperature 48 °F 64 °F 84 °F (1966)
Min Temperature 25 °F 40 °F 18 °F (1965)
Degree Days  
Heating Degree Days 30    
Moisture  
Dew Point 19 °F    
Average Humidity 50    
Maximum Humidity 73    
Minimum Humidity 26    
Precipitation  
Precipitation 0.00 in - - ()
Sea Level Pressure  
Sea Level Pressure 30.04 in    
Wind  
Wind Speed 6 mph (North)    
Max Wind Speed 12 mph    
Max Gust Speed 18 mph    
Visibility 10 miles    
Events      
Averages and records for this station are not official NWS values.
T = Trace of Precipitation, MM = Missing Value Source: NWS Daily Summary

Daily Weather History Graph

Daily Weather History Graph

Search for Another Location

Airport or City:

Trip Planner

Search our weather history database for the weather conditions in past years. The results will help you decide how hot, cold, wet, or windy it might be!

Date:

Astronomy

Mar. 21, 2013 Rise Set
Actual Time 6:49 AM CDT 7:00 PM CDT
Civil Twilight 6:24 AM CDT 7:25 PM CDT
Nautical Twilight 5:55 AM CDT 7:55 PM CDT
Astronomical Twilight 5:25 AM CDT 8:24 PM CDT
Moon 1:41 PM CDT (3/21) 2:59 AM CDT (3/21)
Length of Visible Light 13h 01m
Length of Day
12h 10m
Waxing Gibbous, 69% of the Moon is Illuminated
Mar 21
Waxing Gibbous
Mar 27
Full
Apr 2
Last Quarter
Apr 10
New
Apr 18
First Quarter

Hourly Weather History & Observations

Time (CDT) Temp. Windchill Dew Point Humidity Pressure Visibility Wind Dir Wind Speed Gust Speed Precip Events Conditions
12:53 AM 37.0 °F 30.4 °F 28.9 °F 73% 30.03 in 10.0 mi North 9.2 mph - N/A   Clear
1:53 AM 35.1 °F 27.9 °F 25.0 °F 67% 30.04 in 10.0 mi NNE 9.2 mph 18.4 mph N/A   Clear
2:53 AM 32.0 °F 23.0 °F 19.9 °F 61% 30.05 in 10.0 mi NNE 11.5 mph - N/A   Clear
3:53 AM 30.0 °F 23.2 °F 19.0 °F 64% 30.05 in 10.0 mi NNE 6.9 mph - N/A   Clear
4:53 AM 28.9 °F 21.9 °F 17.1 °F 61% 30.05 in 10.0 mi NNE 6.9 mph - N/A   Clear
5:53 AM 26.1 °F 21.9 °F 17.1 °F 69% 30.07 in 10.0 mi NNW 3.5 mph - N/A   Clear
6:53 AM 25.0 °F 19.3 °F 17.1 °F 72% 30.09 in 10.0 mi North 4.6 mph - N/A   Clear
7:53 AM 28.9 °F 23.9 °F 17.1 °F 61% 30.11 in 10.0 mi NNW 4.6 mph - N/A   Clear
8:53 AM 32.0 °F 26.4 °F 15.1 °F 50% 30.13 in 10.0 mi North 5.8 mph - N/A   Clear
9:53 AM 34.0 °F 28.0 °F 12.9 °F 42% 30.12 in 10.0 mi North 6.9 mph - N/A   Clear
10:53 AM 36.0 °F 33.3 °F 12.0 °F 37% 30.11 in 10.0 mi Variable 3.5 mph - N/A   Clear
11:53 AM 37.9 °F 35.5 °F 12.0 °F 35% 30.09 in 10.0 mi North 3.5 mph - N/A   Clear
12:53 PM 39.9 °F 33.4 °F 16.0 °F 38% 30.08 in 10.0 mi WSW 10.4 mph - N/A   Clear
1:53 PM 42.1 °F 38.4 °F 17.1 °F 37% 30.05 in 10.0 mi WNW 5.8 mph - N/A   Clear
2:53 PM 44.1 °F 42.5 °F 14.0 °F 30% 30.01 in 10.0 mi Variable 3.5 mph - N/A   Clear
3:53 PM 46.0 °F 44.8 °F 14.0 °F 28% 29.99 in 10.0 mi Variable 3.5 mph - N/A   Clear
4:53 PM 46.0 °F - 12.9 °F 26% 29.97 in 10.0 mi Calm Calm - N/A   Clear
5:53 PM 46.0 °F - 14.0 °F 28% 29.98 in 10.0 mi Calm Calm - N/A   Clear
6:53 PM 42.1 °F 40.2 °F 24.1 °F 49% 29.99 in 10.0 mi South 3.5 mph - N/A   Clear
7:53 PM 39.0 °F 36.8 °F 24.1 °F 55% 29.99 in 10.0 mi SE 3.5 mph - N/A   Clear
8:53 PM 42.1 °F - 24.1 °F 49% 29.99 in 10.0 mi Calm Calm - N/A   Overcast
9:53 PM 41.0 °F 39.0 °F 26.1 °F 55% 30.00 in 10.0 mi East 3.5 mph - N/A   Clear
10:53 PM 41.0 °F - 24.1 °F 51% 30.02 in 10.0 mi Calm Calm - N/A   Partly Cloudy
11:53 PM 41.0 °F - 25.0 °F 53% 30.04 in 10.0 mi Calm Calm - N/A   Overcast